| time (UTC) | temp F | wind direction | speed MPH | gust MPH | rain 1hr in | rain 24hr in | rain mn in | humidity % | barometer mb |
| 20260502152235 | 51 | 82 | 3.0 | 4.0 | 0.00 | 0.00 | 0.00 | 53 | 1018.7 |
| 20260502151732 | 50 | 63 | 2.0 | 3.0 | 0.00 | 0.00 | 0.00 | 50 | 1018.8 |
| 20260502151229 | 50 | 47 | 1.0 | 2.0 | 0.00 | 0.00 | 0.00 | 48 | 1019.0 |
| 20260502150727 | 49 | 257 | 2.0 | 2.0 | 0.00 | 0.00 | 0.00 | 48 | 1018.9 |
| 20260502150224 | 49 | 10 | 2.0 | 3.0 | 0.00 | 0.00 | 0.00 | 55 | 1018.6 |
| 20260502130612 | 44 | 295 | 2.0 | 2.0 | 0.00 | 0.00 | 0.00 | 71 | 1018.7 |
| 20260502130110 | 43 | 36 | 1.0 | 1.0 | 0.00 | 0.00 | 0.00 | 73 | 1018.8 |
| 20260502123555 | 42 | 36 | 1.0 | 1.0 | 0.00 | 0.00 | 0.00 | 77 | 1018.4 |
| 20260502123052 | 43 | 68 | 0.0 | 0.0 | 0.00 | 0.00 | 0.00 | 78 | 1018.6 |
| 20260502122548 | 42 | 63 | 1.0 | 1.0 | 0.00 | 0.00 | 0.00 | 79 | 1018.7 |
| 20260502122045 | 42 | 68 | 1.0 | 1.0 | 0.00 | 0.00 | 0.00 | 80 | 1018.6 |
| 20260502121543 | 42 | 12 | 1.0 | 2.0 | 0.00 | 0.00 | 0.00 | 80 | 1018.4 |
| 20260502121040 | 41 | 88 | 0.0 | 0.0 | 0.00 | 0.00 | 0.00 | 84 | 1018.4 |
| 20260502120536 | 40 | 88 | 0.0 | 0.0 | 0.00 | 0.00 | 0.00 | 86 | 1018.4 |
| 20260502115531 | 39 | 88 | 0.0 | 0.0 | 0.00 | 0.00 | 0.00 | 89 | 1018.4 |
| 20260502115027 | 39 | 88 | 0.0 | 0.0 | 0.00 | 0.00 | 0.00 | 92 | 1018.7 |
| 20260502114524 | 38 | 88 | 0.0 | 0.0 | 0.00 | 0.00 | 0.00 | 95 | 1018.7 |
| 20260502114021 | 38 | 88 | 0.0 | 0.0 | 0.00 | 0.00 | 0.00 | 95 | 1018.8 |
| 20260502113518 | 38 | 88 | 0.0 | 0.0 | 0.00 | 0.00 | 0.00 | 96 | 1018.6 |
| 20260502113017 | 37 | 88 | 0.0 | 0.0 | 0.00 | 0.00 | 0.00 | 96 | 1018.2 |
| 20260502112514 | 37 | 88 | 0.0 | 0.0 | 0.00 | 0.00 | 0.00 | 96 | 1018.4 |
| 20260502112011 | 37 | 88 | 0.0 | 0.0 | 0.00 | 0.00 | 0.00 | 95 | 1018.3 |
| 20260502111509 | 36 | 88 | 0.0 | 0.0 | 0.00 | 0.00 | 0.00 | 95 | 1018.2 |
| 20260502111006 | 36 | 88 | 0.0 | 0.0 | 0.00 | 0.00 | 0.00 | 95 | 1018.0 |
| 20260502110503 | 36 | 88 | 0.0 | 0.0 | 0.00 | 0.00 | 0.00 | 95 | 1018.3 |
| 20260502110001 | 36 | 88 | 0.0 | 0.0 | 0.00 | 0.00 | 0.00 | 95 | 1018.2 |
| 20260502105458 | 35 | 88 | 0.0 | 0.0 | 0.00 | 0.00 | 0.00 | 95 | 1018.2 |
| 20260502104955 | 35 | 88 | 0.0 | 0.0 | 0.00 | 0.00 | 0.00 | 95 | 1018.3 |
| 20260502104453 | 35 | 88 | 0.0 | 0.0 | 0.00 | 0.00 | 0.00 | 95 | 1018.0 |
| 20260502103950 | 35 | 88 | 0.0 | 0.0 | 0.00 | 0.00 | 0.00 | 95 | 1018.3 |
| 20260502103447 | 35 | 88 | 0.0 | 0.0 | 0.00 | 0.00 | 0.00 | 95 | 1018.3 |
| 20260502102944 | 35 | 88 | 0.0 | 0.0 | 0.00 | 0.00 | 0.00 | 95 | 1018.4 |
| 20260502102441 | 35 | 88 | 0.0 | 0.0 | 0.00 | 0.00 | 0.00 | 95 | 1018.4 |
| 20260502101938 | 35 | 88 | 0.0 | 0.0 | 0.00 | 0.00 | 0.00 | 95 | 1018.5 |
| 20260502101436 | 35 | 88 | 0.0 | 0.0 | 0.00 | 0.00 | 0.00 | 94 | 1018.2 |
| 20260502100934 | 34 | 88 | 0.0 | 0.0 | 0.00 | 0.00 | 0.00 | 94 | 1018.3 |
| 20260502100433 | 34 | 88 | 0.0 | 0.0 | 0.00 | 0.00 | 0.00 | 94 | 1018.4 |
| 20260502091408 | 36 | 88 | 0.0 | 0.0 | 0.00 | 0.00 | 0.00 | 93 | 1018.6 |
| 20260502090905 | 35 | 88 | 0.0 | 0.0 | 0.00 | 0.00 | 0.00 | 92 | 1018.6 |
| 20260502090401 | 35 | 88 | 0.0 | 0.0 | 0.00 | 0.00 | 0.00 | 92 | 1018.8 |
| 20260502071256 | 38 | 88 | 0.0 | 0.0 | 0.00 | 0.00 | 0.00 | 84 | 1018.5 |
| 20260502070755 | 39 | 88 | 0.0 | 0.0 | 0.00 | 0.00 | 0.00 | 82 | 1018.4 |
| 20260502070252 | 39 | 88 | 0.0 | 0.0 | 0.00 | 0.00 | 0.00 | 82 | 1018.5 |
| 20260502065750 | 38 | 88 | 0.0 | 0.0 | 0.00 | 0.00 | 0.00 | 83 | 1018.5 |
| 20260502065248 | 38 | 88 | 0.0 | 0.0 | 0.00 | 0.00 | 0.00 | 82 | 1018.5 |
| 20260502064746 | 39 | 88 | 0.0 | 0.0 | 0.00 | 0.00 | 0.00 | 81 | 1018.6 |
| 20260502064244 | 39 | 88 | 0.0 | 0.0 | 0.00 | 0.00 | 0.00 | 80 | 1018.5 |
| 20260502063741 | 39 | 88 | 0.0 | 0.0 | 0.00 | 0.00 | 0.00 | 78 | 1018.5 |
| 20260502063239 | 39 | 88 | 0.0 | 0.0 | 0.00 | 0.00 | 0.00 | 78 | 1018.6 |
| 20260502062735 | 39 | 94 | 0.0 | 0.0 | 0.00 | 0.00 | 0.00 | 79 | 1018.6 |
| 20260502062233 | 39 | 89 | 0.0 | 0.0 | 0.00 | 0.00 | 0.00 | 79 | 1018.7 |
| 20260502061732 | 39 | 97 | 0.0 | 0.0 | 0.00 | 0.00 | 0.00 | 79 | 1018.9 |
| 20260502061229 | 39 | 97 | 0.0 | 0.0 | 0.00 | 0.00 | 0.00 | 79 | 1018.8 |
| 20260502060724 | 40 | 97 | 0.0 | 0.0 | 0.00 | 0.00 | 0.00 | 79 | 1018.6 |
| 20260502060220 | 40 | 97 | 0.0 | 0.0 | 0.00 | 0.00 | 0.00 | 79 | 1018.6 |
| 20260502055718 | 40 | 97 | 0.0 | 0.0 | 0.00 | 0.00 | 0.00 | 77 | 1018.6 |
| 20260502055216 | 41 | 102 | 0.0 | 0.0 | 0.00 | 0.00 | 0.00 | 75 | 1018.7 |
| 20260502054715 | 41 | 109 | 0.0 | 0.0 | 0.00 | 0.00 | 0.00 | 73 | 1018.8 |
| 20260502054212 | 41 | 109 | 0.0 | 0.0 | 0.00 | 0.00 | 0.00 | 74 | 1018.8 |
| 20260502053709 | 41 | 110 | 0.0 | 0.0 | 0.00 | 0.00 | 0.00 | 74 | 1018.6 |
| 20260502053206 | 42 | 110 | 0.0 | 0.0 | 0.00 | 0.00 | 0.00 | 74 | 1018.9 |
| 20260502052704 | 42 | 110 | 0.0 | 0.0 | 0.00 | 0.00 | 0.00 | 74 | 1018.6 |
| 20260502052202 | 42 | 51 | 0.0 | 0.0 | 0.00 | 0.00 | 0.00 | 73 | 1018.7 |
| 20260502051700 | 42 | 50 | 0.0 | 0.0 | 0.00 | 0.00 | 0.00 | 73 | 1018.8 |
| 20260502051158 | 43 | 50 | 0.0 | 0.0 | 0.00 | 0.00 | 0.00 | 71 | 1018.7 |
| 20260502050654 | 43 | 49 | 0.0 | 0.0 | 0.00 | 0.00 | 0.00 | 70 | 1018.8 |
| 20260502050150 | 44 | 64 | 0.0 | 0.0 | 0.00 | 0.00 | 0.00 | 70 | 1018.8 |
| 20260502045647 | 44 | 57 | 0.0 | 0.0 | 0.00 | 0.00 | 0.00 | 69 | 1018.8 |
| 20260502045145 | 44 | 68 | 0.0 | 0.0 | 0.00 | 0.00 | 0.00 | 68 | 1019.0 |
| 20260502044641 | 44 | 42 | 0.0 | 0.0 | 0.00 | 0.00 | 0.00 | 68 | 1018.9 |
| 20260502044137 | 45 | 54 | 0.0 | 0.0 | 0.00 | 0.00 | 0.00 | 68 | 1019.0 |
| 20260502043636 | 45 | 46 | 0.0 | 1.0 | 0.00 | 0.00 | 0.00 | 67 | 1019.1 |
| 20260502043133 | 45 | 93 | 1.0 | 2.0 | 0.00 | 0.00 | 0.00 | 68 | 1018.9 |
| 20260502042632 | 45 | 275 | 3.0 | 3.0 | 0.00 | 0.00 | 0.00 | 67 | 1019.1 |
| 20260502042130 | 45 | 14 | 1.0 | 1.0 | 0.00 | 0.00 | 0.00 | 67 | 1019.1 |
| 20260502041627 | 45 | 8 | 2.0 | 2.0 | 0.00 | 0.00 | 0.00 | 67 | 1019.1 |
| 20260502041124 | 45 | 97 | 2.0 | 4.0 | 0.00 | 0.00 | 0.00 | 69 | 1018.9 |
| 20260502040621 | 45 | 99 | 0.0 | 0.0 | 0.00 | 0.00 | 0.00 | 71 | 1019.1 |
| 20260502040119 | 46 | 63 | 2.0 | 2.0 | 0.00 | 0.00 | 0.00 | 71 | 1019.1 |
| 20260502035614 | 46 | 212 | 2.0 | 2.0 | 0.00 | 0.00 | 0.00 | 70 | 1019.1 |
| 20260502035112 | 46 | 10 | 2.0 | 2.0 | 0.00 | 0.00 | 0.00 | 69 | 1018.7 |
| 20260502034609 | 46 | 23 | 1.0 | 1.0 | 0.00 | 0.00 | 0.00 | 71 | 1018.8 |
| 20260502034108 | 46 | 59 | 1.0 | 1.0 | 0.00 | 0.00 | 0.00 | 71 | 1018.7 |
| 20260502033605 | 46 | 54 | 2.0 | 2.0 | 0.00 | 0.00 | 0.00 | 72 | 1018.8 |
| 20260502033103 | 46 | 88 | 1.0 | 1.0 | 0.00 | 0.00 | 0.00 | 73 | 1018.7 |
| 20260502032558 | 47 | 54 | 3.0 | 4.0 | 0.00 | 0.00 | 0.00 | 73 | 1018.8 |
| 20260502032055 | 47 | 33 | 3.0 | 3.0 | 0.00 | 0.00 | 0.00 | 74 | 1018.8 |
| 20260502031553 | 47 | 326 | 2.0 | 2.0 | 0.00 | 0.00 | 0.00 | 75 | 1018.8 |
| 20260502031050 | 47 | 0 | 2.0 | 2.0 | 0.00 | 0.00 | 0.00 | 75 | 1018.8 |
| 20260502030549 | 47 | 323 | 1.0 | 2.0 | 0.00 | 0.00 | 0.00 | 74 | 1018.8 |
| 20260502030046 | 47 | 204 | 2.0 | 2.0 | 0.00 | 0.00 | 0.00 | 74 | 1018.8 |
| 20260502025543 | 47 | 115 | 2.0 | 3.0 | 0.00 | 0.00 | 0.00 | 74 | 1018.7 |
| 20260502025042 | 47 | 278 | 5.0 | 7.0 | 0.00 | 0.00 | 0.00 | 73 | 1018.8 |
| 20260502024538 | 48 | 0 | 1.0 | 1.0 | 0.00 | 0.00 | 0.00 | 74 | 1018.6 |
| 20260502024037 | 48 | 82 | 0.0 | 0.0 | 0.00 | 0.00 | 0.00 | 73 | 1018.6 |
| 20260502023534 | 48 | 316 | 2.0 | 3.0 | 0.00 | 0.00 | 0.00 | 72 | 1018.5 |
| 20260502023031 | 48 | 61 | 0.0 | 0.0 | 0.00 | 0.00 | 0.00 | 72 | 1018.4 |
| 20260502022528 | 48 | 52 | 1.0 | 1.0 | 0.00 | 0.00 | 0.00 | 72 | 1018.3 |
| 20260502022026 | 48 | 65 | 1.0 | 1.0 | 0.00 | 0.00 | 0.00 | 71 | 1018.4 |
| 20260502021523 | 48 | 62 | 0.0 | 0.0 | 0.00 | 0.00 | 0.00 | 72 | 1018.4 |
| 20260502021019 | 48 | 73 | 0.0 | 0.0 | 0.00 | 0.00 | 0.00 | 71 | 1018.3 |
| 20260502020517 | 48 | 63 | 0.0 | 0.0 | 0.00 | 0.00 | 0.00 | 70 | 1018.3 |
| 20260502020014 | 48 | 49 | 1.0 | 1.0 | 0.00 | 0.00 | 0.00 | 70 | 1018.2 |
| 20260502015512 | 48 | 104 | 1.0 | 1.0 | 0.00 | 0.00 | 0.00 | 70 | 1018.0 |
| 20260502015008 | 48 | 138 | 1.0 | 1.0 | 0.00 | 0.00 | 0.00 | 69 | 1018.0 |
| 20260502014505 | 48 | 68 | 0.0 | 0.0 | 0.00 | 0.00 | 0.00 | 69 | 1017.8 |
| 20260502014001 | 48 | 54 | 1.0 | 1.0 | 0.00 | 0.00 | 0.00 | 69 | 1017.8 |
| 20260502013457 | 48 | 60 | 0.0 | 0.0 | 0.00 | 0.00 | 0.00 | 68 | 1017.6 |
| 20260502012954 | 48 | 65 | 0.0 | 0.0 | 0.00 | 0.00 | 0.00 | 67 | 1017.7 |
| 20260502012451 | 48 | 93 | 1.0 | 2.0 | 0.00 | 0.00 | 0.00 | 68 | 1017.6 |
| 20260502011949 | 48 | 49 | 2.0 | 3.0 | 0.00 | 0.00 | 0.00 | 68 | 1017.5 |
| 20260502011444 | 48 | 91 | 1.0 | 1.0 | 0.00 | 0.00 | 0.00 | 70 | 1017.5 |
| 20260502010942 | 48 | 255 | 2.0 | 2.0 | 0.00 | 0.00 | 0.00 | 68 | 1017.6 |
| 20260502010438 | 48 | 24 | 1.0 | 2.0 | 0.00 | 0.00 | 0.00 | 68 | 1017.3 |
| 20260502005935 | 48 | 25 | 2.0 | 2.0 | 0.00 | 0.00 | 0.00 | 68 | 1017.4 |
| 20260502005433 | 49 | 68 | 1.0 | 1.0 | 0.00 | 0.00 | 0.00 | 68 | 1017.3 |
| 20260502004931 | 49 | 49 | 2.0 | 2.0 | 0.00 | 0.00 | 0.00 | 67 | 1017.2 |
| 20260502004426 | 49 | 108 | 0.0 | 0.0 | 0.00 | 0.00 | 0.00 | 67 | 1017.1 |
| 20260502003924 | 49 | 24 | 0.0 | 1.0 | 0.00 | 0.00 | 0.00 | 67 | 1017.1 |
| 20260502003421 | 50 | 106 | 1.0 | 2.0 | 0.00 | 0.00 | 0.00 | 67 | 1016.9 |
| 20260502002917 | 50 | 67 | 4.0 | 7.0 | 0.00 | 0.00 | 0.00 | 67 | 1016.8 |
| 20260502002415 | 50 | 79 | 0.0 | 0.0 | 0.00 | 0.00 | 0.00 | 67 | 1016.7 |
| 20260502001912 | 50 | 15 | 1.0 | 1.0 | 0.00 | 0.00 | 0.00 | 68 | 1016.8 |
| 20260502001409 | 51 | 21 | 2.0 | 2.0 | 0.00 | 0.00 | 0.00 | 67 | 1016.6 |
| 20260502000907 | 51 | 65 | 2.0 | 3.0 | 0.00 | 0.00 | 0.00 | 66 | 1016.1 |
| 20260502000405 | 51 | 46 | 2.0 | 2.0 | 0.00 | 0.00 | 0.00 | 68 | 1016.1 |
| 20260501235900 | 51 | 58 | 0.0 | 0.0 | 0.00 | 0.00 | 0.00 | 69 | 1016.3 |
| 20260501235356 | 51 | 17 | 3.0 | 3.0 | 0.00 | 0.00 | 0.00 | 68 | 1016.0 |
| 20260501234852 | 51 | 59 | 1.0 | 1.0 | 0.00 | 0.00 | 0.00 | 68 | 1015.7 |
| 20260501234349 | 51 | 51 | 0.0 | 0.0 | 0.00 | 0.00 | 0.00 | 68 | 1015.8 |
| 20260501233847 | 52 | 352 | 5.0 | 6.0 | 0.00 | 0.00 | 0.00 | 68 | 1015.3 |
| 20260501233344 | 52 | 306 | 2.0 | 3.0 | 0.00 | 0.00 | 0.00 | 68 | 1015.5 |
| 20260501232840 | 52 | 349 | 4.0 | 4.0 | 0.00 | 0.00 | 0.00 | 67 | 1015.3 |
| 20260501232337 | 53 | 243 | 2.0 | 2.0 | 0.00 | 0.00 | 0.00 | 68 | 1015.3 |
| 20260501231835 | 53 | 56 | 1.0 | 1.0 | 0.00 | 0.00 | 0.00 | 66 | 1015.3 |
| 20260501231332 | 53 | 89 | 2.0 | 2.0 | 0.00 | 0.00 | 0.00 | 67 | 1015.3 |
| 20260501230831 | 53 | 276 | 3.0 | 3.0 | 0.00 | 0.00 | 0.00 | 66 | 1015.3 |
| 20260501230330 | 53 | 140 | 1.0 | 2.0 | 0.00 | 0.00 | 0.00 | 66 | 1015.4 |
| 20260501225826 | 53 | 263 | 1.0 | 2.0 | 0.00 | 0.00 | 0.00 | 65 | 1015.5 |
| 20260501225324 | 53 | 172 | 2.0 | 2.0 | 0.00 | 0.00 | 0.00 | 64 | 1015.1 |
| 20260501224820 | 54 | 308 | 3.0 | 4.0 | 0.00 | 0.00 | 0.00 | 63 | 1015.3 |
| 20260501224318 | 55 | 67 | 0.0 | 0.0 | 0.00 | 0.00 | 0.00 | 62 | 1015.3 |
| 20260501223814 | 55 | 286 | 4.0 | 4.0 | 0.00 | 0.00 | 0.00 | 61 | 1015.4 |
| 20260501223310 | 55 | 289 | 4.0 | 4.0 | 0.00 | 0.00 | 0.00 | 61 | 1015.2 |
| 20260501222806 | 55 | 344 | 4.0 | 4.0 | 0.00 | 0.00 | 0.00 | 60 | 1015.1 |
| 20260501222305 | 55 | 315 | 4.0 | 7.0 | 0.00 | 0.00 | 0.00 | 60 | 1015.0 |
| 20260501221800 | 55 | 49 | 2.0 | 2.0 | 0.00 | 0.00 | 0.00 | 62 | 1014.7 |
| 20260501221257 | 55 | 92 | 3.0 | 3.0 | 0.00 | 0.00 | 0.00 | 57 | 1014.6 |
| 20260501220755 | 56 | 272 | 4.0 | 4.0 | 0.00 | 0.00 | 0.00 | 55 | 1014.9 |
| 20260501220252 | 57 | 244 | 4.0 | 8.0 | 0.00 | 0.00 | 0.00 | 53 | 1014.6 |
| 20260501215749 | 58 | 7 | 2.0 | 2.0 | 0.00 | 0.00 | 0.00 | 53 | 1014.6 |
| 20260501215244 | 59 | 4 | 2.0 | 2.0 | 0.00 | 0.00 | 0.00 | 51 | 1014.5 |
| 20260501214739 | 60 | 262 | 3.0 | 3.0 | 0.00 | 0.00 | 0.00 | 45 | 1014.4 |
| 20260501214236 | 60 | 298 | 3.0 | 3.0 | 0.00 | 0.00 | 0.00 | 39 | 1014.4 |
| 20260501213732 | 60 | 289 | 2.0 | 3.0 | 0.00 | 0.00 | 0.00 | 39 | 1014.3 |
| 20260501213229 | 60 | 283 | 9.0 | 10.0 | 0.00 | 0.00 | 0.00 | 37 | 1014.2 |
| 20260501212725 | 61 | 4 | 4.0 | 6.0 | 0.00 | 0.00 | 0.00 | 38 | 1014.0 |
| 20260501212221 | 61 | 314 | 3.0 | 3.0 | 0.00 | 0.00 | 0.00 | 36 | 1013.9 |
| 20260501211718 | 62 | 273 | 5.0 | 7.0 | 0.00 | 0.00 | 0.00 | 36 | 1013.9 |
| 20260501211216 | 63 | 285 | 5.0 | 7.0 | 0.00 | 0.00 | 0.00 | 34 | 1014.1 |
| 20260501210713 | 63 | 279 | 9.0 | 9.0 | 0.00 | 0.00 | 0.00 | 34 | 1013.8 |
| 20260501210209 | 64 | 211 | 8.0 | 10.0 | 0.00 | 0.00 | 0.00 | 33 | 1013.8 |
| 20260501205706 | 62 | 117 | 1.0 | 2.0 | 0.00 | 0.00 | 0.00 | 35 | 1014.1 |
| 20260501205203 | 62 | 285 | 5.0 | 7.0 | 0.00 | 0.00 | 0.00 | 33 | 1014.0 |
| 20260501204700 | 63 | 289 | 11.0 | 15.0 | 0.00 | 0.00 | 0.00 | 32 | 1014.0 |
| 20260501204155 | 64 | 286 | 4.0 | 8.0 | 0.00 | 0.00 | 0.00 | 33 | 1014.0 |
| 20260501203652 | 64 | 272 | 4.0 | 4.0 | 0.00 | 0.00 | 0.00 | 33 | 1014.1 |
| 20260501203150 | 64 | 242 | 9.0 | 11.0 | 0.00 | 0.00 | 0.00 | 31 | 1013.9 |
| 20260501202647 | 65 | 243 | 7.0 | 11.0 | 0.00 | 0.00 | 0.00 | 32 | 1014.1 |
| 20260501202144 | 64 | 271 | 7.0 | 8.0 | 0.00 | 0.00 | 0.00 | 31 | 1014.0 |
| 20260501201641 | 65 | 277 | 4.0 | 4.0 | 0.00 | 0.00 | 0.00 | 31 | 1014.0 |
| 20260501201137 | 66 | 172 | 2.0 | 4.0 | 0.00 | 0.00 | 0.00 | 34 | 1014.0 |
| 20260501200634 | 65 | 275 | 6.0 | 7.0 | 0.00 | 0.00 | 0.00 | 29 | 1013.8 |
| 20260501200132 | 65 | 303 | 10.0 | 11.0 | 0.00 | 0.00 | 0.00 | 28 | 1013.9 |
| 20260501195629 | 63 | 47 | 1.0 | 1.0 | 0.00 | 0.00 | 0.00 | 33 | 1014.0 |
| 20260501195124 | 63 | 96 | 1.0 | 1.0 | 0.00 | 0.00 | 0.00 | 32 | 1014.0 |
| 20260501194620 | 64 | 255 | 3.0 | 4.0 | 0.00 | 0.00 | 0.00 | 27 | 1014.1 |
| 20260501194116 | 65 | 286 | 4.0 | 7.0 | 0.00 | 0.00 | 0.00 | 30 | 1013.9 |
| 20260501193614 | 64 | 216 | 5.0 | 8.0 | 0.00 | 0.00 | 0.00 | 29 | 1013.9 |
| 20260501193112 | 63 | 290 | 5.0 | 6.0 | 0.00 | 0.00 | 0.00 | 28 | 1014.2 |
| 20260501192608 | 65 | 299 | 6.0 | 8.0 | 0.00 | 0.00 | 0.00 | 28 | 1014.2 |
| 20260501192106 | 66 | 270 | 4.0 | 4.0 | 0.00 | 0.00 | 0.00 | 27 | 1014.3 |
| 20260501191603 | 64 | 302 | 2.0 | 2.0 | 0.00 | 0.00 | 0.00 | 26 | 1014.3 |
| 20260501191100 | 65 | 307 | 4.0 | 7.0 | 0.00 | 0.00 | 0.00 | 25 | 1014.3 |
| 20260501190556 | 65 | 283 | 6.0 | 7.0 | 0.00 | 0.00 | 0.00 | 27 | 1014.4 |
| 20260501190051 | 66 | 4 | 3.0 | 4.0 | 0.00 | 0.00 | 0.00 | 28 | 1014.5 |
| 20260501185548 | 66 | 284 | 6.0 | 10.0 | 0.00 | 0.00 | 0.00 | 26 | 1014.6 |
| 20260501185044 | 66 | 174 | 3.0 | 4.0 | 0.00 | 0.00 | 0.00 | 26 | 1014.3 |
| 20260501184540 | 67 | 118 | 2.0 | 3.0 | 0.00 | 0.00 | 0.00 | 28 | 1014.5 |
| 20260501184040 | 66 | 122 | 2.0 | 2.0 | 0.00 | 0.00 | 0.00 | 29 | 1014.5 |
| 20260501183537 | 65 | 113 | 1.0 | 2.0 | 0.00 | 0.00 | 0.00 | 29 | 1014.3 |
| 20260501183033 | 65 | 203 | 7.0 | 13.0 | 0.00 | 0.00 | 0.00 | 23 | 1014.3 |
| 20260501182530 | 65 | 156 | 2.0 | 2.0 | 0.00 | 0.00 | 0.00 | 24 | 1014.2 |
| 20260501182027 | 64 | 252 | 3.0 | 3.0 | 0.00 | 0.00 | 0.00 | 27 | 1014.4 |
| 20260501181525 | 65 | 214 | 5.0 | 8.0 | 0.00 | 0.00 | 0.00 | 23 | 1014.6 |
| 20260501181021 | 65 | 266 | 4.0 | 6.0 | 0.00 | 0.00 | 0.00 | 24 | 1014.6 |
| 20260501180519 | 64 | 203 | 4.0 | 4.0 | 0.00 | 0.00 | 0.00 | 24 | 1014.6 |
| 20260501180015 | 64 | 81 | 1.0 | 1.0 | 0.00 | 0.00 | 0.00 | 27 | 1014.7 |
| 20260501175512 | 64 | 283 | 3.0 | 4.0 | 0.00 | 0.00 | 0.00 | 27 | 1014.6 |
| 20260501175008 | 64 | 184 | 3.0 | 3.0 | 0.00 | 0.00 | 0.00 | 27 | 1014.7 |
| 20260501174506 | 65 | 297 | 6.0 | 8.0 | 0.00 | 0.00 | 0.00 | 25 | 1014.9 |
| 20260501174003 | 64 | 345 | 2.0 | 3.0 | 0.00 | 0.00 | 0.00 | 25 | 1014.7 |
| 20260501173500 | 64 | 322 | 4.0 | 4.0 | 0.00 | 0.00 | 0.00 | 28 | 1014.7 |
| 20260501172956 | 64 | 344 | 2.0 | 3.0 | 0.00 | 0.00 | 0.00 | 25 | 1015.1 |
| 20260501172452 | 64 | 205 | 2.0 | 2.0 | 0.00 | 0.00 | 0.00 | 26 | 1014.7 |
| 20260501171948 | 64 | 230 | 3.0 | 3.0 | 0.00 | 0.00 | 0.00 | 25 | 1015.0 |
| 20260501171444 | 64 | 135 | 2.0 | 2.0 | 0.00 | 0.00 | 0.00 | 30 | 1015.1 |
| 20260501170940 | 64 | 141 | 2.0 | 2.0 | 0.00 | 0.00 | 0.00 | 30 | 1015.1 |
| 20260501170438 | 63 | 274 | 2.0 | 2.0 | 0.00 | 0.00 | 0.00 | 30 | 1015.1 |
| 20260501165935 | 63 | 115 | 2.0 | 2.0 | 0.00 | 0.00 | 0.00 | 25 | 1015.0 |
| 20260501165433 | 63 | 276 | 3.0 | 3.0 | 0.00 | 0.00 | 0.00 | 31 | 1015.1 |
| 20260501164930 | 63 | 84 | 1.0 | 1.0 | 0.00 | 0.00 | 0.00 | 32 | 1015.1 |
| 20260501164428 | 62 | 357 | 3.0 | 3.0 | 0.00 | 0.00 | 0.00 | 28 | 1015.4 |
| 20260501163924 | 62 | 168 | 2.0 | 2.0 | 0.00 | 0.00 | 0.00 | 31 | 1015.4 |
| 20260501163420 | 62 | 250 | 5.0 | 6.0 | 0.00 | 0.00 | 0.00 | 33 | 1015.3 |
| 20260501162917 | 62 | 4 | 2.0 | 2.0 | 0.00 | 0.00 | 0.00 | 39 | 1015.8 |
| 20260501162414 | 61 | 124 | 1.0 | 1.0 | 0.00 | 0.00 | 0.00 | 38 | 1015.8 |
| 20260501161911 | 60 | 149 | 3.0 | 3.0 | 0.00 | 0.00 | 0.00 | 41 | 1015.6 |
| 20260501161408 | 60 | 123 | 1.0 | 1.0 | 0.00 | 0.00 | 0.00 | 39 | 1015.8 |
| 20260501160905 | 60 | 357 | 4.0 | 4.0 | 0.00 | 0.00 | 0.00 | 39 | 1015.7 |
| 20260501160401 | 59 | 172 | 1.0 | 2.0 | 0.00 | 0.00 | 0.00 | 47 | 1015.8 |
| 20260501155859 | 59 | 98 | 4.0 | 6.0 | 0.00 | 0.00 | 0.00 | 38 | 1016.0 |
| 20260501155355 | 59 | 126 | 4.0 | 6.0 | 0.00 | 0.00 | 0.00 | 39 | 1016.0 |